iso_date,Year,Hour,Min,DOY,POS_DOY,Lat,Lon,BP,Ts,Ta,has_bp,has_ts,has_ta,BuoyID,Buoy_Type,Buoy_Owner,Logistics,Hemisphere
2022-07-11T06:00:00Z,2022,6,0,192.25,192.25,85.0822,40.1298,1002.0,3.2,1.3,yes,yes,yes,300534061353000,SnowBuoy,AWI,Charcot,North
2022-07-11T07:00:02Z,2022,7,0,192.2917,192.2917,85.2376,39.9818,1002.6,2.3,0.4,yes,yes,yes,300534061353000,SnowBuoy,AWI,Charcot,North
2022-07-11T07:59:57Z,2022,8,0,192.3333,192.3333,85.3388,40.9768,1003.3,2.6,0.9,yes,yes,yes,300534061353000,SnowBuoy,AWI,Charcot,North
2022-07-11T09:00:00Z,2022,9,0,192.375,192.375,85.4022,42.3346,1003.9,3.0,1.2,yes,yes,yes,300534061353000,SnowBuoy,AWI,Charcot,North
2022-07-11T10:00:02Z,2022,10,0,192.4167,192.4167,85.4912,44.0338,1003.3,3.1,-0.2,yes,yes,yes,300534061353000,SnowBuoy,AWI,Charcot,North
2022-07-11T10:59:57Z,2022,11,0,192.4583,192.4583,85.574,45.031,1003.5,3.2,0.0,yes,yes,yes,300534061353000,SnowBuoy,AWI,Charcot,North
2022-07-11T12:00:00Z,2022,12,0,192.5,192.5,85.6764,44.5646,1003.4,2.1,-0.3,yes,yes,yes,300534061353000,SnowBuoy,AWI,Charcot,North
2022-07-14T08:02:58Z,2022,8,3,195.3354,192.4917,89.9906,-30.7918,1005.9,9.4,0.9,yes,yes,yes,300534061353000,SnowBuoy,AWI,Charcot,North
2022-07-14T09:00:00Z,2022,9,0,195.375,195.375,89.9888,-3.8064,1006.5,7.3,0.7,yes,yes,yes,300534061353000,SnowBuoy,AWI,Charcot,North
2022-07-14T10:00:02Z,2022,10,0,195.4167,195.4167,89.9858,11.2266,1007.4,5.9,1.0,yes,yes,yes,300534061353000,SnowBuoy,AWI,Charcot,North
2022-07-14T10:59:57Z,2022,11,0,195.4583,195.4583,89.9826,20.2088,1007.7,4.8,1.0,yes,yes,yes,300534061353000,SnowBuoy,AWI,Charcot,North
2022-07-14T12:00:00Z,2022,12,0,195.5,195.5,89.9792,27.5996,1007.9,4.1,0.8,yes,yes,yes,300534061353000,SnowBuoy,AWI,Charcot,North
2022-07-14T13:00:02Z,2022,13,0,195.5417,195.5417,89.9756,34.549,1008.2,3.5,0.7,yes,yes,yes,300534061353000,SnowBuoy,AWI,Charcot,North
2022-07-14T13:59:57Z,2022,14,0,195.5833,195.5833,89.9716,41.1074,1008.2,3.1,0.6,yes,yes,yes,300534061353000,SnowBuoy,AWI,Charcot,North
2022-07-14T15:00:00Z,2022,15,0,195.625,195.625,89.967,46.2418,1008.4,2.8,0.8,yes,yes,yes,300534061353000,SnowBuoy,AWI,Charcot,North
2022-07-14T16:00:02Z,2022,16,0,195.6667,195.6667,89.9622,50.2434,1008.6,2.5,0.8,yes,yes,yes,300534061353000,SnowBuoy,AWI,Charcot,North
2022-07-14T16:59:57Z,2022,17,0,195.7083,195.7083,89.9568,53.2288,1008.7,2.3,0.6,yes,yes,yes,300534061353000,SnowBuoy,AWI,Charcot,North
2022-07-14T18:00:00Z,2022,18,0,195.75,195.75,89.9512,55.2766,1008.7,2.1,0.2,yes,yes,yes,300534061353000,SnowBuoy,AWI,Charcot,North
2022-07-14T19:01:03Z,2022,19,1,195.7924,195.7924,89.9456,56.5584,1008.9,1.9,0.0,yes,yes,yes,300534061353000,SnowBuoy,AWI,Charcot,North
2022-07-14T19:59:57Z,2022,20,0,195.8333,195.8333,89.9406,57.0156,1009.0,1.8,-0.2,yes,yes,yes,300534061353000,SnowBuoy,AWI,Charcot,North
2022-07-14T21:00:00Z,2022,21,0,195.875,195.875,89.9362,57.4338,1009.1,1.7,-0.1,yes,yes,yes,300534061353000,SnowBuoy,AWI,Charcot,North
2022-07-14T22:00:02Z,2022,22,0,195.9167,195.9167,89.9322,57.9586,1008.7,1.6,0.1,yes,yes,yes,300534061353000,SnowBuoy,AWI,Charcot,North
2022-07-14T22:59:57Z,2022,23,0,195.9583,195.9583,89.9288,58.5376,1008.8,1.5,0.2,yes,yes,yes,300534061353000,SnowBuoy,AWI,Charcot,North
2022-07-15T00:00:00Z,2022,0,0,196.0,196.0,89.9256,59.243,1008.7,1.5,0.4,yes,yes,yes,300534061353000,SnowBuoy,AWI,Charcot,North
2022-07-15T01:00:02Z,2022,1,0,196.0417,196.0417,89.9222,60.2652,1008.3,1.4,0.4,yes,yes,yes,300534061353000,SnowBuoy,AWI,Charcot,North
2022-07-15T01:59:57Z,2022,2,0,196.0833,196.0833,89.9184,61.5282,1008.1,1.4,0.8,yes,yes,yes,300534061353000,SnowBuoy,AWI,Charcot,North
2022-07-15T03:00:00Z,2022,3,0,196.125,196.125,89.9144,62.875,1007.9,1.3,1.4,yes,yes,yes,300534061353000,SnowBuoy,AWI,Charcot,North
2022-07-15T04:00:02Z,2022,4,0,196.1667,196.1667,89.9106,64.612,1007.6,1.3,1.4,yes,yes,yes,300534061353000,SnowBuoy,AWI,Charcot,North
2022-07-15T04:59:57Z,2022,5,0,196.2083,196.2083,89.9064,66.5398,1007.3,1.2,1.5,yes,yes,yes,300534061353000,SnowBuoy,AWI,Charcot,North
2022-07-15T06:00:00Z,2022,6,0,196.25,196.25,89.9016,68.4384,1007.0,1.2,1.4,yes,yes,yes,300534061353000,SnowBuoy,AWI,Charcot,North
2022-07-15T07:00:02Z,2022,7,0,196.2917,196.2917,89.8966,70.1418,1007.0,1.2,1.4,yes,yes,yes,300534061353000,SnowBuoy,AWI,Charcot,North
2022-07-15T07:59:57Z,2022,8,0,196.3333,196.3333,89.8916,71.5346,1006.9,1.2,1.2,yes,yes,yes,300534061353000,SnowBuoy,AWI,Charcot,North
2022-07-15T09:00:00Z,2022,9,0,196.375,196.375,89.887,72.8372,1006.9,1.1,1.1,yes,yes,yes,300534061353000,SnowBuoy,AWI,Charcot,North
2022-07-15T10:00:02Z,2022,10,0,196.4167,196.4167,89.8824,74.12,1006.4,1.1,1.0,yes,yes,yes,300534061353000,SnowBuoy,AWI,Charcot,North
2022-07-15T10:59:57Z,2022,11,0,196.4583,196.4583,89.8778,75.4196,1006.5,1.1,0.9,yes,yes,yes,300534061353000,SnowBuoy,AWI,Charcot,North
2022-07-15T12:00:00Z,2022,12,0,196.5,196.5,89.873,76.6654,1006.1,1.1,0.7,yes,yes,yes,300534061353000,SnowBuoy,AWI,Charcot,North
2022-07-15T13:00:02Z,2022,13,0,196.5417,196.5417,89.8682,78.0122,1005.9,1.1,0.6,yes,yes,yes,300534061353000,SnowBuoy,AWI,Charcot,North
2022-07-15T13:59:57Z,2022,14,0,196.5833,196.5833,89.8634,79.273,1006.0,1.1,0.6,yes,yes,yes,300534061353000,SnowBuoy,AWI,Charcot,North
2022-07-15T15:00:00Z,2022,15,0,196.625,196.625,89.8582,80.3706,1005.8,1.1,0.5,yes,yes,yes,300534061353000,SnowBuoy,AWI,Charcot,North
2022-07-15T16:00:02Z,2022,16,0,196.6667,196.6667,89.853,81.2278,1005.6,1.1,0.6,yes,yes,yes,300534061353000,SnowBuoy,AWI,Charcot,North
2022-07-15T16:59:57Z,2022,17,0,196.7083,196.7083,89.8484,81.8482,1005.4,1.1,0.8,yes,yes,yes,300534061353000,SnowBuoy,AWI,Charcot,North
2022-07-15T18:00:00Z,2022,18,0,196.75,196.75,89.8436,82.343,1005.6,1.1,1.1,yes,yes,yes,300534061353000,SnowBuoy,AWI,Charcot,North
2022-07-15T19:00:02Z,2022,19,0,196.7917,196.7917,89.8392,82.624,1005.7,1.0,1.3,yes,yes,yes,300534061353000,SnowBuoy,AWI,Charcot,North
2022-07-15T19:59:57Z,2022,20,0,196.8333,196.8333,89.8352,82.8712,1005.8,1.0,1.3,yes,yes,yes,300534061353000,SnowBuoy,AWI,Charcot,North
2022-07-15T21:00:00Z,2022,21,0,196.875,196.875,89.8316,83.149,1006.0,1.0,1.5,yes,yes,yes,300534061353000,SnowBuoy,AWI,Charcot,North
2022-07-15T22:00:02Z,2022,22,0,196.9167,196.9167,89.8284,83.4442,1006.4,1.0,1.5,yes,yes,yes,300534061353000,SnowBuoy,AWI,Charcot,North
2022-07-15T22:59:57Z,2022,23,0,196.9583,196.9583,89.8252,83.879,1006.3,1.0,1.5,yes,yes,yes,300534061353000,SnowBuoy,AWI,Charcot,North
2022-07-16T00:00:00Z,2022,0,0,197.0,197.0,89.8222,84.356,1006.5,1.0,1.6,yes,yes,yes,300534061353000,SnowBuoy,AWI,Charcot,North
2022-07-16T01:00:02Z,2022,1,0,197.0417,197.0417,89.819,85.0102,1006.6,1.0,1.5,yes,yes,yes,300534061353000,SnowBuoy,AWI,Charcot,North
2022-07-16T01:59:57Z,2022,2,0,197.0833,197.0833,89.8156,85.7676,1006.7,1.0,1.5,yes,yes,yes,300534061353000,SnowBuoy,AWI,Charcot,North
2022-07-16T03:00:00Z,2022,3,0,197.125,197.125,89.812,86.4754,1006.6,1.0,1.5,yes,yes,yes,300534061353000,SnowBuoy,AWI,Charcot,North
2022-07-16T04:00:02Z,2022,4,0,197.1667,197.1667,89.8084,87.1652,1006.5,1.0,1.6,yes,yes,yes,300534061353000,SnowBuoy,AWI,Charcot,North
2022-07-16T04:59:57Z,2022,5,0,197.2083,197.2083,89.805,87.855,1006.3,1.0,1.5,yes,yes,yes,300534061353000,SnowBuoy,AWI,Charcot,North
2022-07-16T06:00:00Z,2022,6,0,197.25,197.25,89.8016,88.5672,1006.3,1.0,1.4,yes,yes,yes,300534061353000,SnowBuoy,AWI,Charcot,North
2022-07-16T07:00:02Z,2022,7,0,197.2917,197.2917,89.798,89.3128,1006.3,1.0,1.4,yes,yes,yes,300534061353000,SnowBuoy,AWI,Charcot,North
2022-07-16T07:59:57Z,2022,8,0,197.3333,197.3333,89.794,90.0078,1006.2,1.0,1.4,yes,yes,yes,300534061353000,SnowBuoy,AWI,Charcot,North
2022-07-16T09:00:00Z,2022,9,0,197.375,197.375,89.79,90.6272,1006.1,1.0,1.3,yes,yes,yes,300534061353000,SnowBuoy,AWI,Charcot,North
2022-07-16T10:00:02Z,2022,10,0,197.4167,197.4167,89.7858,91.2454,1006.1,1.0,1.4,yes,yes,yes,300534061353000,SnowBuoy,AWI,Charcot,North
2022-07-16T10:59:57Z,2022,11,0,197.4583,197.4583,89.7814,91.8398,1006.0,1.0,1.3,yes,yes,yes,300534061353000,SnowBuoy,AWI,Charcot,North
2022-07-16T12:00:00Z,2022,12,0,197.5,197.5,89.7766,92.3034,1005.9,1.0,1.5,yes,yes,yes,300534061353000,SnowBuoy,AWI,Charcot,North
2022-07-16T13:00:02Z,2022,13,0,197.5417,197.5417,89.7718,92.5872,1005.7,1.0,1.5,yes,yes,yes,300534061353000,SnowBuoy,AWI,Charcot,North
2022-07-16T13:59:57Z,2022,14,0,197.5833,197.5833,89.7674,92.795,1005.9,1.0,1.5,yes,yes,yes,300534061353000,SnowBuoy,AWI,Charcot,North
2022-07-16T15:00:00Z,2022,15,0,197.625,197.625,89.7628,92.9058,1005.6,1.0,1.5,yes,yes,yes,300534061353000,SnowBuoy,AWI,Charcot,North
2022-07-16T16:00:02Z,2022,16,0,197.6667,197.6667,89.7586,92.9154,1005.7,1.0,1.5,yes,yes,yes,300534061353000,SnowBuoy,AWI,Charcot,North
2022-07-16T16:59:57Z,2022,17,0,197.7083,197.7083,89.7546,92.8528,1005.5,1.0,1.6,yes,yes,yes,300534061353000,SnowBuoy,AWI,Charcot,North
2022-07-16T18:00:00Z,2022,18,0,197.75,197.75,89.7504,92.8054,1005.4,1.0,1.4,yes,yes,yes,300534061353000,SnowBuoy,AWI,Charcot,North
2022-07-16T19:00:02Z,2022,19,0,197.7917,197.7917,89.7466,92.7956,1005.7,1.0,1.6,yes,yes,yes,300534061353000,SnowBuoy,AWI,Charcot,North
2022-07-16T19:59:57Z,2022,20,0,197.8333,197.8333,89.7432,92.867,1005.7,1.0,1.8,yes,yes,yes,300534061353000,SnowBuoy,AWI,Charcot,North
2022-07-16T21:00:00Z,2022,21,0,197.875,197.875,89.7392,93.0532,1005.8,1.0,1.7,yes,yes,yes,300534061353000,SnowBuoy,AWI,Charcot,North
2022-07-16T22:00:02Z,2022,22,0,197.9167,197.9167,89.7344,93.3136,1005.9,1.0,1.9,yes,yes,yes,300534061353000,SnowBuoy,AWI,Charcot,North
2022-07-16T22:59:57Z,2022,23,0,197.9583,197.9583,89.729,93.5186,1006.1,1.0,2.0,yes,yes,yes,300534061353000,SnowBuoy,AWI,Charcot,North
2022-07-17T00:00:00Z,2022,0,0,198.0,198.0,89.7232,93.608,1006.5,1.0,2.1,yes,yes,yes,300534061353000,SnowBuoy,AWI,Charcot,North
2022-07-17T01:00:02Z,2022,1,0,198.0417,198.0417,89.7174,93.4876,1006.8,1.0,2.1,yes,yes,yes,300534061353000,SnowBuoy,AWI,Charcot,North
2022-07-17T01:59:57Z,2022,2,0,198.0833,198.0833,89.7122,93.1816,1007.1,1.0,1.9,yes,yes,yes,300534061353000,SnowBuoy,AWI,Charcot,North
2022-07-17T03:00:00Z,2022,3,0,198.125,198.125,89.7076,92.7768,1007.3,1.0,1.7,yes,yes,yes,300534061353000,SnowBuoy,AWI,Charcot,North
2022-07-17T04:00:02Z,2022,4,0,198.1667,198.1667,89.7038,92.3556,1007.5,1.0,1.6,yes,yes,yes,300534061353000,SnowBuoy,AWI,Charcot,North
2022-07-17T04:59:57Z,2022,5,0,198.2083,198.2083,89.7004,91.9612,1008.4,1.0,1.5,yes,yes,yes,300534061353000,SnowBuoy,AWI,Charcot,North
2022-07-17T06:00:00Z,2022,6,0,198.25,198.25,89.6976,91.5824,1008.7,1.0,1.4,yes,yes,yes,300534061353000,SnowBuoy,AWI,Charcot,North
2022-07-17T07:00:02Z,2022,7,0,198.2917,198.2917,89.6952,91.2534,1009.3,1.0,1.3,yes,yes,yes,300534061353000,SnowBuoy,AWI,Charcot,North
2022-07-17T07:59:57Z,2022,8,0,198.3333,198.3333,89.693,90.983,1009.9,1.0,1.2,yes,yes,yes,300534061353000,SnowBuoy,AWI,Charcot,North
2022-07-17T09:00:00Z,2022,9,0,198.375,198.375,89.691,90.7178,1010.6,1.0,1.5,yes,yes,yes,300534061353000,SnowBuoy,AWI,Charcot,North
2022-07-17T10:00:02Z,2022,10,0,198.4167,198.4167,89.6892,90.3886,1011.2,1.0,1.6,yes,yes,yes,300534061353000,SnowBuoy,AWI,Charcot,North
2022-07-17T10:59:57Z,2022,11,0,198.4583,198.4583,89.6878,90.0372,1011.9,1.0,1.6,yes,yes,yes,300534061353000,SnowBuoy,AWI,Charcot,North
2022-07-17T12:00:00Z,2022,12,0,198.5,198.5,89.6866,89.6684,1012.3,1.0,1.7,yes,yes,yes,300534061353000,SnowBuoy,AWI,Charcot,North
2022-07-17T13:00:02Z,2022,13,0,198.5417,198.5417,89.6858,89.2996,1013.1,1.0,1.6,yes,yes,yes,300534061353000,SnowBuoy,AWI,Charcot,North
2022-07-17T13:59:57Z,2022,14,0,198.5833,198.5833,89.6852,88.9594,1013.7,1.0,1.7,yes,yes,yes,300534061353000,SnowBuoy,AWI,Charcot,North
2022-07-17T15:00:00Z,2022,15,0,198.625,198.625,89.6846,88.59,1013.7,1.0,1.7,yes,yes,yes,300534061353000,SnowBuoy,AWI,Charcot,North
2022-07-17T16:00:02Z,2022,16,0,198.6667,198.6667,89.6844,88.2286,1014.0,1.0,1.7,yes,yes,yes,300534061353000,SnowBuoy,AWI,Charcot,North
2022-07-17T16:59:57Z,2022,17,0,198.7083,198.7083,89.6844,87.929,1014.6,1.0,1.7,yes,yes,yes,300534061353000,SnowBuoy,AWI,Charcot,North
2022-07-17T18:00:00Z,2022,18,0,198.75,198.75,89.6846,87.7082,1015.0,1.0,2.2,yes,yes,yes,300534061353000,SnowBuoy,AWI,Charcot,North
2022-07-17T19:00:02Z,2022,19,0,198.7917,198.7917,89.6846,87.503,1015.4,1.0,1.6,yes,yes,yes,300534061353000,SnowBuoy,AWI,Charcot,North
2022-07-17T19:59:57Z,2022,20,0,198.8333,198.8333,89.685,87.3354,1016.2,1.0,1.6,yes,yes,yes,300534061353000,SnowBuoy,AWI,Charcot,North
2022-07-17T21:00:00Z,2022,21,0,198.875,198.875,89.6852,87.1952,1016.8,1.0,1.5,yes,yes,yes,300534061353000,SnowBuoy,AWI,Charcot,North
2022-07-17T22:00:02Z,2022,22,0,198.9167,198.9167,89.6856,87.0288,1017.2,1.0,1.6,yes,yes,yes,300534061353000,SnowBuoy,AWI,Charcot,North
2022-07-17T22:59:57Z,2022,23,0,198.9583,198.9583,89.686,86.817,1017.9,1.0,1.6,yes,yes,yes,300534061353000,SnowBuoy,AWI,Charcot,North
2022-07-18T00:00:00Z,2022,0,0,199.0,199.0,89.6866,86.502,1018.3,1.0,1.6,yes,yes,yes,300534061353000,SnowBuoy,AWI,Charcot,North
2022-07-18T01:00:02Z,2022,1,0,199.0417,199.0417,89.6882,86.131,1019.0,1.0,1.6,yes,yes,yes,300534061353000,SnowBuoy,AWI,Charcot,North
2022-07-18T01:59:57Z,2022,2,0,199.0833,199.0833,89.6904,85.767,1019.6,1.0,1.5,yes,yes,yes,300534061353000,SnowBuoy,AWI,Charcot,North
2022-07-18T03:00:00Z,2022,3,0,199.125,199.125,89.6932,85.4362,1020.2,1.0,1.4,yes,yes,yes,300534061353000,SnowBuoy,AWI,Charcot,North
2022-07-18T04:00:02Z,2022,4,0,199.1667,199.1667,89.6966,85.108,1020.8,1.0,1.4,yes,yes,yes,300534061353000,SnowBuoy,AWI,Charcot,North
2022-07-18T04:59:57Z,2022,5,0,199.2083,199.2083,89.7008,84.8622,1021.3,1.0,1.4,yes,yes,yes,300534061353000,SnowBuoy,AWI,Charcot,North
2022-07-18T06:00:00Z,2022,6,0,199.25,199.25,89.7052,84.6908,1021.9,1.0,1.3,yes,yes,yes,300534061353000,SnowBuoy,AWI,Charcot,North
2022-07-18T07:00:02Z,2022,7,0,199.2917,199.2917,89.71,84.5952,1022.3,1.0,1.3,yes,yes,yes,300534061353000,SnowBuoy,AWI,Charcot,North
2022-07-18T07:59:57Z,2022,8,0,199.3333,199.3333,89.7146,84.6236,1022.8,1.0,1.3,yes,yes,yes,300534061353000,SnowBuoy,AWI,Charcot,North
2022-07-18T09:00:00Z,2022,9,0,199.375,199.375,89.7194,84.6988,1023.3,1.0,1.2,yes,yes,yes,300534061353000,SnowBuoy,AWI,Charcot,North
2022-07-18T10:00:02Z,2022,10,0,199.4167,199.4167,89.724,84.7926,1024.0,1.0,1.2,yes,yes,yes,300534061353000,SnowBuoy,AWI,Charcot,North
2022-07-18T10:59:57Z,2022,11,0,199.4583,199.4583,89.7282,84.8688,1024.4,1.0,1.2,yes,yes,yes,300534061353000,SnowBuoy,AWI,Charcot,North
2022-07-18T12:00:00Z,2022,12,0,199.5,199.5,89.732,84.899,1024.6,1.0,1.2,yes,yes,yes,300534061353000,SnowBuoy,AWI,Charcot,North
2022-07-18T13:00:02Z,2022,13,0,199.5417,199.5417,89.7358,84.8346,1024.7,1.0,1.3,yes,yes,yes,300534061353000,SnowBuoy,AWI,Charcot,North
2022-07-18T13:59:57Z,2022,14,0,199.5833,199.5833,89.74,84.6868,1024.9,1.0,1.3,yes,yes,yes,300534061353000,SnowBuoy,AWI,Charcot,North
2022-07-18T15:00:00Z,2022,15,0,199.625,199.625,89.7444,84.487,1025.1,1.0,1.3,yes,yes,yes,300534061353000,SnowBuoy,AWI,Charcot,North
2022-07-18T16:00:02Z,2022,16,0,199.6667,199.6667,89.7492,84.3104,1025.2,1.0,1.3,yes,yes,yes,300534061353000,SnowBuoy,AWI,Charcot,North
2022-07-18T16:59:57Z,2022,17,0,199.7083,199.7083,89.7542,84.273,1025.2,1.0,1.3,yes,yes,yes,300534061353000,SnowBuoy,AWI,Charcot,North
2022-07-18T18:00:00Z,2022,18,0,199.75,199.75,89.7596,84.4028,1025.2,1.0,1.3,yes,yes,yes,300534061353000,SnowBuoy,AWI,Charcot,North
2022-07-18T19:00:02Z,2022,19,0,199.7917,199.7917,89.765,84.7296,1025.4,1.0,1.3,yes,yes,yes,300534061353000,SnowBuoy,AWI,Charcot,North
2022-07-18T19:59:57Z,2022,20,0,199.8333,199.8333,89.7698,85.1724,1025.3,1.0,1.2,yes,yes,yes,300534061353000,SnowBuoy,AWI,Charcot,North
2022-07-18T21:00:00Z,2022,21,0,199.875,199.875,89.7744,85.5802,1025.4,1.0,1.2,yes,yes,yes,300534061353000,SnowBuoy,AWI,Charcot,North
2022-07-18T22:00:02Z,2022,22,0,199.9167,199.9167,89.7786,85.922,1025.4,1.0,1.4,yes,yes,yes,300534061353000,SnowBuoy,AWI,Charcot,North
2022-07-18T22:59:57Z,2022,23,0,199.9583,199.9583,89.7826,86.125,1025.3,1.0,1.4,yes,yes,yes,300534061353000,SnowBuoy,AWI,Charcot,North
2022-07-19T00:00:00Z,2022,0,0,200.0,200.0,89.7866,86.2108,1025.3,1.0,1.4,yes,yes,yes,300534061353000,SnowBuoy,AWI,Charcot,North
2022-07-19T01:00:02Z,2022,1,0,200.0417,200.0417,89.7908,86.1608,1025.1,1.0,1.4,yes,yes,yes,300534061353000,SnowBuoy,AWI,Charcot,North
2022-07-19T01:59:57Z,2022,2,0,200.0833,200.0833,89.7954,86.0574,1025.0,1.0,1.4,yes,yes,yes,300534061353000,SnowBuoy,AWI,Charcot,North
2022-07-19T03:00:00Z,2022,3,0,200.125,200.125,89.8004,86.0264,1025.0,1.0,1.4,yes,yes,yes,300534061353000,SnowBuoy,AWI,Charcot,North
2022-07-19T04:00:02Z,2022,4,0,200.1667,200.1667,89.8056,86.1478,1024.7,1.0,1.6,yes,yes,yes,300534061353000,SnowBuoy,AWI,Charcot,North
2022-07-19T04:59:57Z,2022,5,0,200.2083,200.2083,89.811,86.4306,1024.3,1.0,1.6,yes,yes,yes,300534061353000,SnowBuoy,AWI,Charcot,North
2022-07-19T06:00:00Z,2022,6,0,200.25,200.25,89.8166,86.9298,1024.3,1.0,1.6,yes,yes,yes,300534061353000,SnowBuoy,AWI,Charcot,North
2022-07-19T07:00:02Z,2022,7,0,200.2917,200.2917,89.8218,87.6576,1024.0,1.0,1.5,yes,yes,yes,300534061353000,SnowBuoy,AWI,Charcot,North
2022-07-19T07:59:57Z,2022,8,0,200.3333,200.3333,89.8268,88.5684,1024.1,1.0,1.5,yes,yes,yes,300534061353000,SnowBuoy,AWI,Charcot,North
2022-07-19T09:00:00Z,2022,9,0,200.375,200.375,89.831,89.6584,1024.0,1.0,1.5,yes,yes,yes,300534061353000,SnowBuoy,AWI,Charcot,North
2022-07-19T10:00:02Z,2022,10,0,200.4167,200.4167,89.834,90.649,1023.7,1.0,1.5,yes,yes,yes,300534061353000,SnowBuoy,AWI,Charcot,North
2022-07-19T10:59:57Z,2022,11,0,200.4583,200.4583,89.8362,91.405,1023.9,1.0,1.6,yes,yes,yes,300534061353000,SnowBuoy,AWI,Charcot,North
2022-07-19T12:00:00Z,2022,12,0,200.5,200.5,89.8378,92.0364,1024.0,1.0,1.7,yes,yes,yes,300534061353000,SnowBuoy,AWI,Charcot,North
2022-07-19T13:00:02Z,2022,13,0,200.5417,200.5417,89.8392,92.6598,1023.8,1.0,1.4,yes,yes,yes,300534061353000,SnowBuoy,AWI,Charcot,North
2022-07-19T13:59:57Z,2022,14,0,200.5833,200.5833,89.8404,93.4118,1023.8,1.0,1.2,yes,yes,yes,300534061353000,SnowBuoy,AWI,Charcot,North
2022-07-19T15:00:00Z,2022,15,0,200.625,200.625,89.8412,94.33,1024.1,1.0,1.2,yes,yes,yes,300534061353000,SnowBuoy,AWI,Charcot,North
2022-07-19T16:00:02Z,2022,16,0,200.6667,200.6667,89.8418,95.163,1024.2,1.0,1.2,yes,yes,yes,300534061353000,SnowBuoy,AWI,Charcot,North
2022-07-19T16:59:57Z,2022,17,0,200.7083,200.7083,89.8424,96.1242,1024.3,1.1,1.0,yes,yes,yes,300534061353000,SnowBuoy,AWI,Charcot,North
2022-07-19T18:00:00Z,2022,18,0,200.75,200.75,89.8428,97.2336,1024.5,1.1,1.0,yes,yes,yes,300534061353000,SnowBuoy,AWI,Charcot,North
2022-07-19T19:00:02Z,2022,19,0,200.7917,200.7917,89.8424,98.4374,1024.8,1.1,0.8,yes,yes,yes,300534061353000,SnowBuoy,AWI,Charcot,North
2022-07-19T19:59:57Z,2022,20,0,200.8333,200.8333,89.841,99.5042,1025.0,1.1,1.0,yes,yes,yes,300534061353000,SnowBuoy,AWI,Charcot,North
2022-07-19T21:00:00Z,2022,21,0,200.875,200.875,89.839,100.1814,1025.1,1.0,1.2,yes,yes,yes,300534061353000,SnowBuoy,AWI,Charcot,North
2022-07-19T22:00:02Z,2022,22,0,200.9167,200.9167,89.837,100.618,1025.3,1.1,1.3,yes,yes,yes,300534061353000,SnowBuoy,AWI,Charcot,North
2022-07-19T22:59:57Z,2022,23,0,200.9583,200.9583,89.8348,100.9446,1025.6,1.1,1.0,yes,yes,yes,300534061353000,SnowBuoy,AWI,Charcot,North
2022-07-20T00:00:00Z,2022,0,0,201.0,201.0,89.8326,101.057,1025.7,1.1,0.5,yes,yes,yes,300534061353000,SnowBuoy,AWI,Charcot,North
2022-07-20T01:00:02Z,2022,1,0,201.0417,201.0417,89.8308,101.003,1025.9,1.1,0.6,yes,yes,yes,300534061353000,SnowBuoy,AWI,Charcot,North
2022-07-20T01:59:57Z,2022,2,0,201.0833,201.0833,89.83,100.9314,1026.1,1.1,0.6,yes,yes,yes,300534061353000,SnowBuoy,AWI,Charcot,North
2022-07-20T03:00:00Z,2022,3,0,201.125,201.125,89.83,100.98,1026.1,1.1,0.7,yes,yes,yes,300534061353000,SnowBuoy,AWI,Charcot,North
2022-07-20T04:00:02Z,2022,4,0,201.1667,201.1667,89.8306,101.1916,1026.1,1.1,0.9,yes,yes,yes,300534061353000,SnowBuoy,AWI,Charcot,North
2022-07-20T04:59:57Z,2022,5,0,201.2083,201.2083,89.8312,101.4968,1025.7,1.1,1.3,yes,yes,yes,300534061353000,SnowBuoy,AWI,Charcot,North
2022-07-20T06:00:00Z,2022,6,0,201.25,201.25,89.832,101.809,1025.7,1.1,1.4,yes,yes,yes,300534061353000,SnowBuoy,AWI,Charcot,North
2022-07-20T07:00:02Z,2022,7,0,201.2917,201.2917,89.833,102.3276,1025.4,1.1,1.1,yes,yes,yes,300534061353000,SnowBuoy,AWI,Charcot,North
2022-07-20T07:59:57Z,2022,8,0,201.3333,201.3333,89.8338,102.8948,1025.5,1.1,0.9,yes,yes,yes,300534061353000,SnowBuoy,AWI,Charcot,North
2022-07-20T09:00:00Z,2022,9,0,201.375,201.375,89.8344,103.5728,1025.0,1.1,1.1,yes,yes,yes,300534061353000,SnowBuoy,AWI,Charcot,North
2022-07-20T10:00:02Z,2022,10,0,201.4167,201.4167,89.8348,104.0704,1024.8,1.1,1.3,yes,yes,yes,300534061353000,SnowBuoy,AWI,Charcot,North
2022-07-20T10:59:57Z,2022,11,0,201.4583,201.4583,89.8358,104.4018,1024.3,1.1,1.3,yes,yes,yes,300534061353000,SnowBuoy,AWI,Charcot,North
2022-07-20T12:00:00Z,2022,12,0,201.5,201.5,89.8374,104.8052,1024.0,1.1,1.5,yes,yes,yes,300534061353000,SnowBuoy,AWI,Charcot,North
2022-07-20T13:00:02Z,2022,13,0,201.5417,201.5417,89.8396,105.2712,1023.6,1.1,1.6,yes,yes,yes,300534061353000,SnowBuoy,AWI,Charcot,North
2022-07-20T13:59:57Z,2022,14,0,201.5833,201.5833,89.8418,105.863,1023.4,1.1,1.5,yes,yes,yes,300534061353000,SnowBuoy,AWI,Charcot,North
2022-07-20T15:00:00Z,2022,15,0,201.625,201.625,89.8444,106.6246,1023.0,1.1,1.6,yes,yes,yes,300534061353000,SnowBuoy,AWI,Charcot,North
2022-07-20T16:00:02Z,2022,16,0,201.6667,201.6667,89.8468,107.6884,1022.7,1.1,1.7,yes,yes,yes,300534061353000,SnowBuoy,AWI,Charcot,North
2022-07-20T16:59:57Z,2022,17,0,201.7083,201.7083,89.8488,108.987,1022.3,1.1,1.7,yes,yes,yes,300534061353000,SnowBuoy,AWI,Charcot,North
2022-07-20T18:00:00Z,2022,18,0,201.75,201.75,89.8504,110.4168,1022.0,1.1,1.6,yes,yes,yes,300534061353000,SnowBuoy,AWI,Charcot,North
2022-07-20T19:00:02Z,2022,19,0,201.7917,201.7917,89.8512,112.0722,1021.9,1.1,1.4,yes,yes,yes,300534061353000,SnowBuoy,AWI,Charcot,North
2022-07-20T19:59:57Z,2022,20,0,201.8333,201.8333,89.8512,113.6724,1021.7,1.1,1.4,yes,yes,yes,300534061353000,SnowBuoy,AWI,Charcot,North
2022-07-20T21:00:00Z,2022,21,0,201.875,201.875,89.8502,115.0912,1021.8,1.1,1.4,yes,yes,yes,300534061353000,SnowBuoy,AWI,Charcot,North
2022-07-20T22:00:02Z,2022,22,0,201.9167,201.9167,89.8492,116.217,1021.7,1.1,1.5,yes,yes,yes,300534061353000,SnowBuoy,AWI,Charcot,North
2022-07-20T22:59:57Z,2022,23,0,201.9583,201.9583,89.848,117.1724,1021.8,1.1,1.6,yes,yes,yes,300534061353000,SnowBuoy,AWI,Charcot,North
2022-07-21T00:00:00Z,2022,0,0,202.0,202.0,89.8474,118.004,1021.9,1.1,1.5,yes,yes,yes,300534061353000,SnowBuoy,AWI,Charcot,North
2022-07-21T01:00:02Z,2022,1,0,202.0417,202.0417,89.8474,118.7284,1022.1,1.1,1.5,yes,yes,yes,300534061353000,SnowBuoy,AWI,Charcot,North
2022-07-21T01:59:57Z,2022,2,0,202.0833,202.0833,89.848,119.4956,1021.9,1.1,1.5,yes,yes,yes,300534061353000,SnowBuoy,AWI,Charcot,North
2022-07-21T03:00:00Z,2022,3,0,202.125,202.125,89.8486,120.4492,1021.9,1.1,1.5,yes,yes,yes,300534061353000,SnowBuoy,AWI,Charcot,North
2022-07-21T04:00:02Z,2022,4,0,202.1667,202.1667,89.8488,121.5432,1022.0,1.1,1.4,yes,yes,yes,300534061353000,SnowBuoy,AWI,Charcot,North
2022-07-21T04:59:57Z,2022,5,0,202.2083,202.2083,89.8486,122.641,1022.3,1.1,1.5,yes,yes,yes,300534061353000,SnowBuoy,AWI,Charcot,North
2022-07-21T06:00:00Z,2022,6,0,202.25,202.25,89.8482,123.8528,1022.5,1.1,1.5,yes,yes,yes,300534061353000,SnowBuoy,AWI,Charcot,North
2022-07-21T07:00:02Z,2022,7,0,202.2917,202.2917,89.8468,125.0426,1022.7,1.1,1.4,yes,yes,yes,300534061353000,SnowBuoy,AWI,Charcot,North
2022-07-21T07:59:57Z,2022,8,0,202.3333,202.3333,89.845,126.0442,1023.0,1.1,1.2,yes,yes,yes,300534061353000,SnowBuoy,AWI,Charcot,North
2022-07-21T09:00:00Z,2022,9,0,202.375,202.375,89.8426,126.8662,1023.1,1.1,1.3,yes,yes,yes,300534061353000,SnowBuoy,AWI,Charcot,North
2022-07-21T10:00:02Z,2022,10,0,202.4167,202.4167,89.8404,127.4688,1023.4,1.1,1.1,yes,yes,yes,300534061353000,SnowBuoy,AWI,Charcot,North
2022-07-21T10:59:57Z,2022,11,0,202.4583,202.4583,89.8382,127.8548,1023.6,1.1,1.0,yes,yes,yes,300534061353000,SnowBuoy,AWI,Charcot,North